Dewpoint
24 23 22 23 24 23 22 18 17 19 22 12 12 13 23 25 24 23 24 26 27 29 32 32 33 33 34 34 34 35 35 36 36 36 36 37 37 39 38 40 40 40 40 39
21 19 21 23 23 25 24 23 22 23 23 22 20 16 13 25 24 24 24 26 27 30 31 32 32 32 34 33 33 33 34 36 35 36 37 38 39 38 38 38 38 39 39 38
16 17 19 21 24 24 24 23 23 22 20 20 20 20 20 17 23 25 25 26 28 29 30 31 32 32 33 33 33 33 34 35 35 35 35 36 36 35 36 35 37 36 38 37
15 17 16 19 21 21 20 23 18 19 20 19 21 17 18 18 17 23 24 26 28 29 30 30 31 32 33 33 33 33 33 33 34 34 35 34 34 33 34 34 35 35 36 36
18 18 17 20 21 20 18 21 20 20 19 20 18 15 14 15 16 22 24 25 28 30 29 29 30 30 32 33 32 32 33 33 33 33 35 34 33 33 34 33 32 33 34 34
20 20 18 20 20 22 21 20 20 19 18 16 17 16 15 16 19 23 24 28 30 29 28 27 27 29 31 32 31 31 32 32 33 34 34 33 33 32 31 31 31 32 32 32
18 17 16 16 17 19 19 18 18 16 16 14 16 14 16 27 29 28 26 29 30 27 26 25 26 28 29 30 30 30 31 31 31 33 33 32 32 32 31 31 31 30 30 30
9 8 15 17 17 18 19 18 17 13 13 11 11 8 9 30 31 31 31 30 28 26 26 26 27 28 29 31 31 30 30 30 30 31 32 31 32 32 32 31 30 30 29 29
8 7 13 15 16 16 10 8 13 10 11 9 10 10 22 30 30 30 29 29 29 26 26 27 28 29 29 30 31 29 30 29 30 30 32 31 30 31 31 29 29 29 28 26
9 7 10 11 15 14 11 13 9 11 7 6 10 10 10 27 29 30 29 29 29 27 28 30 30 30 31 31 30 30 29 29 29 29 30 30 30 30 30 28 27 27 27 26
11 11 11 7 9 11 10 12 12 12 12 7 7 11 29 28 30 30 30 30 30 29 30 29 29 30 29 30 30 29 29 29 29 29 29 29 28 28 29 27 26 26 26 25
15 13 9 10 13 12 11 9 11 10 9 12 14 12 26 32 33 32 32 31 32 31 30 29 29 29 27 27 28 29 28 28 28 28 29 28 27 28 28 27 25 26 25 25
18 14 11 10 10 10 8 11 10 11 13 11 12 13 32 31 30 33 33 32 33 32 30 28 28 27 27 27 27 28 28 28 29 28 27 28 26 27 26 27 26 26 25 24
17 16 15 12 14 14 11 11 12 10 8 10 10 17 20 21 27 33 34 34 32 31 30 29 29 29 29 28 27 28 28 27 28 28 27 28 24 25 24 26 25 26 25 23
15 13 14 14 13 16 17 16 15 15 16 13 12 11 14 13 23 33 34 34 32 30 29 29 28 27 28 28 28 28 29 28 29 27 27 26 24 24 23 23 26 26 25 22
22 19 20 20 22 21 19 19 18 17 16 15 16 12 14 34 38 37 34 34 32 31 30 29 29 29 29 27 27 29 28 31 30 27 24 19 21 21 21 21 23 25 25 23
25 24 22 20 21 22 19 20 21 21 21 20 17 18 23 33 36 36 35 33 32 32 30 29 32 31 28 26 28 28 25 25 22 21 18 18 18 17 16 16 17 17 18 20
25 24 23 20 21 16 20 23 21 20 22 25 27 27 30 31 30 37 35 34 33 31 31 33 32 29 25 24 23 22 23 22 19 18 16 17 16 16 16 15 15 15 16 15
26 25 23 20 19 18 22 19 19 25 25 28 29 30 32 38 38 36 36 36 34 33 34 32 27 24 23 23 21 21 21 19 19 17 16 16 16 16 16 16 15 15 15 17
24 25 24 27 21 17 16 20 25 27 19 31 30 28 35 35 29 35 35 35 35 34 30 24 24 24 23 22 23 21 21 20 21 22 19 18 19 20 19 18 18 18 18 19
24 25 25 25 22 22 22 22 31 24 24 31 30 32 36 33 34 35 36 36 34 26 22 23 24 23 24 23 21 20 19 19 20 22 22 22 22 21 22 23 22 22 21 22
27 27 25 25 22 18 31 29 28 34 37 33 31 33 33 36 38 37 32 28 24 22 23 23 23 22 23 22 19 18 18 19 19 19 19 20 22 23 23 22 23 22 22 21
26 27 24 24 23 30 35 32 37 38 32 31 33 32 32 31 29 27 25 24 22 22 22 22 23 23 22 20 19 16 19 19 19 18 18 19 20 22 23 21 19 17 18 19
29 32 30 28 31 30 35 38 38 35 30 31 33 31 30 28 27 25 23 21 21 21 21 21 21 21 21 21 19 17 20 20 19 19 20 20 20 19 19 20 17 9 5 10
31 33 33 33 33 34 33 37 36 35 30 30 32 31 29 28 26 23 22 21 21 22 21 20 20 20 19 20 19 19 19 19 18 20 21 21 19 21 18 11 17 15 8 6
30 28 28 27 32 33 32 36 33 31 30 30 32 31 29 27 26 24 23 22 21 21 21 20 20 20 19 19 19 18 17 18 20 20 20 21 21 21 22 19 15 14 15 13
Wind_Speed
13 9 12 16 19 18 15 7 7 16 9 6 11 13 26 26 20 23 27 27 24 23 19 20 17 15 15 11 8 9 13 15 15 13 13 11 10 10 14 15 16 15 15 15
15 21 19 18 19 11 8 10 11 13 17 18 12 18 19 26 29 33 26 24 25 21 21 19 17 15 14 11 8 11 13 16 16 14 8 7 6 12 12 14 16 16 16 16
19 16 14 18 8 10 12 9 9 14 18 17 18 20 11 15 23 24 19 24 24 30 26 22 19 17 16 13 11 12 15 16 16 15 14 13 12 12 15 14 14 15 15 15
14 14 20 14 5 6 10 10 13 12 13 11 11 19 15 16 18 21 25 22 24 25 22 19 19 17 17 14 14 12 16 15 14 13 13 15 12 10 10 12 12 13 15 14
10 11 13 9 4 7 7 8 7 9 13 17 3 8 13 21 24 12 21 22 22 26 27 23 21 20 17 16 13 11 14 15 12 10 11 11 11 9 10 12 13 13 13 13
16 11 10 6 9 2 7 7 9 12 10 16 12 13 19 15 12 7 23 20 28 27 23 23 20 20 18 15 12 9 13 13 11 10 11 12 11 10 12 12 13 12 11 11
11 21 24 14 15 6 1 5 4 4 8 13 5 12 15 9 16 8 10 25 24 25 25 21 20 19 15 12 8 6 13 13 13 13 11 12 12 12 12 12 13 12 12 11
5 7 12 15 21 13 8 12 9 5 5 17 13 8 8 15 24 29 30 28 26 23 20 19 19 16 13 14 12 12 12 14 12 14 10 12 12 10 10 13 13 12 12 12
3 4 9 11 8 9 3 11 10 13 11 12 8 13 6 19 18 23 24 25 23 22 22 22 21 17 15 13 11 11 11 12 11 13 11 12 12 13 12 14 13 12 13 14
2 3 7 6 6 7 10 7 7 4 7 11 11 13 10 8 12 14 16 19 18 18 21 18 17 14 14 11 10 12 12 11 10 11 13 11 12 13 12 14 14 13 13 14
4 1 6 10 4 7 8 12 12 11 12 15 20 13 11 16 18 18 20 20 20 20 20 18 15 12 10 11 8 9 10 8 7 9 10 11 12 11 12 12 12 11 12 13
5 2 7 13 15 16 13 16 10 6 11 13 9 22 11 10 12 19 23 23 21 22 20 18 14 11 7 5 3 5 5 6 4 5 6 7 9 10 10 11 10 8 9 10
3 2 4 8 8 14 8 8 12 14 8 20 13 17 8 6 10 18 26 24 18 19 18 16 14 13 11 8 6 2 5 4 3 5 2 5 7 7 6 7 8 7 10 8
5 2 6 14 7 14 16 23 19 13 16 10 24 16 21 23 22 13 20 25 23 21 20 18 16 13 12 11 9 8 7 7 6 5 2 5 6 3 2 5 6 7 7 7
8 10 12 22 17 16 24 27 27 24 25 22 30 28 18 23 14 16 19 21 22 21 18 17 14 13 11 11 11 10 11 10 9 7 2 5 5 3 1 3 7 7 7 5
9 8 12 24 17 21 31 26 23 25 28 28 28 31 14 4 8 13 24 24 21 19 19 17 16 15 14 13 13 12 10 13 10 8 8 5 7 4 4 6 7 8 8 5
3 2 5 29 8 16 26 11 17 24 22 21 25 20 10 8 12 18 22 24 26 23 21 20 19 17 16 15 14 16 12 9 10 10 9 8 8 8 10 9 9 10 9 8
9 6 4 18 8 19 11 11 16 23 23 13 9 16 16 23 13 20 21 25 21 22 21 20 18 17 16 15 14 14 13 12 11 12 10 9 8 9 9 9 9 9 7 8
21 13 6 7 11 23 22 26 16 9 11 16 12 9 5 12 17 11 16 15 19 20 20 19 17 17 19 16 15 13 14 14 12 13 11 9 9 9 9 9 7 8 8 9
22 20 15 8 7 7 2 3 8 1 17 7 5 4 14 9 4 8 17 18 18 19 18 21 20 17 18 13 14 16 16 17 13 10 10 9 10 10 10 10 10 5 9 9
16 18 23 17 10 12 8 8 6 2 4 7 7 5 13 8 6 18 20 18 20 21 24 22 19 18 16 16 18 19 17 16 10 10 10 10 9 11 10 11 10 11 9 9
11 8 8 8 9 13 3 6 2 3 10 14 3 5 11 13 20 21 20 23 25 25 24 21 20 17 15 15 18 16 15 11 10 10 8 7 8 8 8 9 9 12 11 9
5 10 6 14 10 6 4 5 6 10 10 5 6 11 19 21 21 23 22 22 22 23 21 19 20 18 14 14 16 19 15 14 12 11 9 7 6 6 4 8 10 9 10 11
5 7 5 10 6 6 18 18 6 5 6 6 12 17 19 20 22 20 21 21 21 20 19 19 21 19 16 15 15 16 16 13 13 13 11 9 9 7 7 10 9 9 8 8
4 3 3 3 17 21 5 14 17 14 10 7 18 19 17 20 19 22 20 19 20 19 17 21 21 20 19 18 16 17 17 16 14 12 12 11 10 11 9 7 7 7 4 4
6 9 10 14 12 15 11 6 0 15 12 10 20 16 18 20 21 20 18 18 20 17 17 19 20 20 20 18 18 18 18 18 16 15 14 14 13 12 12 10 6 3 6 7
Wind_Direction
256 224 231 248 248 249 268 293 314 303 331 270 242 226 193 192 188 197 190 180 178 170 144 124 119 109 95 70 62 60 63 49 41 30 45 36 22 37 50 59 41 44 38 48
255 255 255 257 281 315 326 318 305 305 320 317 298 265 249 188 199 203 196 178 173 138 137 128 124 105 101 91 62 64 70 57 39 33 34 26 19 47 49 49 32 37 42 50
249 258 268 252 259 291 302 291 298 306 326 321 330 300 291 219 213 204 196 185 156 150 146 144 135 131 117 97 66 66 72 63 50 44 36 29 33 35 33 28 32 26 43 60
273 258 270 287 293 325 307 324 346 357 344 296 17 299 285 295 300 204 195 179 158 150 138 133 131 121 113 104 83 69 76 61 52 42 47 51 49 42 35 27 37 25 41 56
243 311 317 305 281 318 302 3 2 345 317 310 121 275 273 312 293 231 193 176 154 143 140 141 125 115 105 96 86 60 82 71 54 34 61 60 55 39 50 41 31 28 32 38
269 264 281 264 303 253 1 356 341 301 275 267 259 229 279 280 313 316 192 143 126 126 120 107 106 99 92 84 79 65 92 77 50 34 52 53 53 46 53 44 28 31 31 14
259 253 254 243 259 254 232 282 305 288 209 250 269 269 257 32 8 317 163 121 108 102 101 106 104 98 92 90 67 76 90 71 44 34 55 56 48 50 52 48 46 33 26 21
276 295 237 223 214 203 210 218 212 246 245 297 319 283 326 80 59 69 90 97 95 100 109 107 109 104 93 80 68 55 72 70 47 26 47 54 47 45 51 57 54 32 25 30
221 256 8 95 107 140 180 249 249 281 290 286 266 264 59 84 78 85 99 106 116 117 118 121 116 108 92 89 85 66 74 63 42 25 33 46 44 44 58 57 51 33 35 23
10 303 317 322 175 211 212 244 273 269 284 280 272 300 282 118 125 121 129 137 141 134 124 111 98 90 86 64 89 76 76 63 37 26 24 38 40 40 68 64 50 25 39 30
28 10 311 337 270 243 248 245 237 242 222 252 275 273 158 160 170 175 178 167 156 150 143 135 121 98 85 67 70 80 78 78 51 33 23 34 39 35 64 69 55 25 46 30
21 316 265 262 292 304 299 287 293 282 290 272 262 268 224 155 159 190 189 179 172 161 150 139 130 122 117 110 94 89 97 94 72 52 37 49 44 40 58 77 62 56 44 37
36 321 312 301 261 267 282 314 340 335 325 281 278 276 121 163 222 195 183 173 154 143 141 142 148 160 158 164 173 175 137 152 144 122 154 88 68 59 47 106 79 62 70 42
81 210 217 243 265 321 298 294 300 298 282 291 277 291 293 292 267 198 179 169 154 148 148 147 150 157 163 168 175 193 174 191 190 180 167 138 106 110 67 115 110 109 94 52
170 232 253 265 280 286 279 279 290 290 281 275 280 274 274 270 267 206 170 153 152 158 160 156 169 174 168 172 186 198 201 195 192 193 193 140 156 168 182 91 162 138 108 73
188 220 238 263 270 271 271 269 274 268 271 273 262 271 274 204 125 166 170 164 168 166 170 172 175 180 183 189 196 203 183 195 188 172 139 103 107 109 87 82 112 116 140 122
288 191 269 270 282 307 279 255 257 268 264 272 275 279 277 208 197 182 171 172 169 170 167 175 178 184 181 180 195 180 164 158 140 124 103 94 89 81 80 75 91 95 100 98
245 261 257 276 328 274 260 216 265 264 263 257 274 300 295 310 256 168 171 166 168 161 169 178 181 184 162 164 157 150 145 128 117 113 96 92 90 85 86 80 78 80 82 86
214 213 238 246 241 270 298 285 282 290 306 302 277 274 280 90 86 121 159 163 160 165 171 173 167 152 148 149 148 148 138 128 118 111 103 73 90 87 75 68 79 90 73 61
209 210 207 207 250 271 290 319 219 157 291 63 48 329 172 134 163 181 146 145 153 163 164 142 141 138 147 145 140 126 120 108 92 68 93 79 77 77 72 61 52 68 88 67
191 201 216 219 248 265 264 296 101 206 289 349 1 335 166 185 202 158 150 151 160 145 134 132 129 133 128 127 126 127 125 120 97 83 80 68 52 79 67 59 45 45 68 65
185 197 192 203 231 267 304 153 234 192 359 274 340 162 122 121 128 140 142 139 133 134 134 131 131 129 131 132 135 139 140 132 114 103 106 95 68 69 72 70 53 46 46 57
173 195 199 191 215 242 252 248 162 199 232 211 170 150 132 129 131 134 133 133 131 134 137 134 138 139 142 143 148 150 154 147 143 139 143 140 117 89 79 86 77 62 55 55
276 196 232 318 320 310 305 258 257 257 233 200 161 151 143 140 136 134 132 135 138 146 149 143 146 152 156 157 162 158 158 161 159 165 173 174 150 128 97 89 111 97 81 74
274 322 176 251 282 271 235 207 208 216 180 191 157 156 153 145 148 142 146 148 151 156 146 150 157 160 164 164 167 166 167 165 171 180 182 180 176 169 156 145 146 138 154 135
230 251 252 273 288 275 251 342 28 170 185 180 157 157 153 152 153 151 155 147 154 152 148 155 158 162 168 170 169 174 174 179 183 190 194 194 187 185 185 180 173 188 185 188